AZTECHSAT-1 (45261 NORAD) Tracking and Keplerian Element Data

This shows tracking and keplerian element data for the satellite.

Feedback or suggestion? Click here.




ElementValue
Catalog45261
NameAZTECHSAT-1
Epoch Orbit679
Epoch Day94.03325992
Epoch Year2020
RAAN359.989
Inclination51.6431
Eccentricity0.0009136
Argument of Perigee82.6141
Mean Anonmoly277.5886
Mean Motion15.50618139
Decay Rate8.434E-05
L11 45261U 98067RE 20094.03325992 .00008434 00000-0 15216-3 0 9993
L22 45261 51.6431 359.9890 0009136 82.6141 277.5886 15.50618139 6798

Live tracking and technical data element details for AZTECHSAT-1 (NORAD 45261). AZTECHSAT-1 can be tracked NOW for your location showing map with azimuth and elevation plus other details from your city location.

Track the satellite on the map from your city or location and see movement details for azimuth, elevation, latitude, longitude, range, height, and movement on the map or in text.







IsCatalogInMostPopularTable: catalog: 45261, numindb: 10
Update: records affected: 1



GetName: 45261 AZTECHSAT-1

Hit Count: updated at: Tue, 07 Apr 2020 16:00:33 GMT